Meath Environmental Platform

Observations for Trim Market St

Time AQI Temp °C Hum % Pres Pa CO μg/m³ H₂S μg/m³ NO μg/m³ NO₂ μg/m³ O₃ μg/m³ SO₂ μg/m³ PM1 μg/m³ PM2.5 μg/m³ PM10 μg/m³
Tuesday 14 July 2026
19:15 2 24.2 38 65,471 0 1.36 0 9.08 39.44 0 3.56 7.73 9.97
19:14 2 24.2 38 65,501 0 0.78 0 8.1 39.3 0 4.28 8.28 9.97
19:12 2 24.2 38 65,562 0 1.76 0 8.63 40.82 0 4.28 7.23 8.34
19:10 2 24.2 37 65,600 0 1.12 0 8.28 40.55 0 2.85 6.19 8.35
19:08 2 24.3 37 65,651 0 0 0 6.39 37.47 0 2.14 6.2 7.53
19:00 2 24.4 37 65,670 0 0 0 4.69 27.71 0 3.56 6.75 9.17
18:59 2 24.5 37 65,665 0 0 0 2.75 32.08 0 2.85 6.21 6.7
18:58 2 24.5 37 65,659 0 0 0 6.85 35.39 0 3.56 6.75 7.53
18:57 2 24.5 37 65,651 0 0 0 7.17 35.33 0 3.56 7.82 10
18:56 2 24.6 37 65,672 0 0 0 4.64 31.73 0 3.56 7.28 8.35
18:55 2 24.6 37 65,670 0 0 0 5.73 28.64 0 2.14 6.75 7.53
18:54 2 24.6 37 65,665 0 0 0 5.92 34.47 0 2.85 8.34 11.64
18:53 2 24.6 37 65,657 0 0 0 4.6 31.47 0 3.56 6.2 8.35
18:52 2 24.7 37 65,649 0 0 0 4.17 29.45 0 2.85 7.26 9.17
18:48 2 24.7 38 65,592 0 3.92 0 9.41 34.21 0 4.28 7.77 9.16
18:45 2 24.8 38 65,598 0 4.32 0 9.69 36.42 0 3.56 7.24 9.16
18:43 2 24.8 37 65,635 0 4.4 0 10.02 35.08 0 3.56 8.85 10.81
18:42 2 24.8 37 65,647 0 4.45 0 9.63 34.45 0 4.28 8.32 10.81
18:36 2 24.9 37 65,678 0 2.67 0 9.08 37.41 0 2.14 5.7 6.7
18:29 1 24.9 36 65,719 0 5.51 0 10.33 36.18 0 3.56 7.85 9.18